Weather History for Nassau, Bahamas

Change the Weather History Date:

Monday, August 12, 2013

  Actual Average Record
Temperature  
Mean Temperature 82 °F -  
Max Temperature 86 °F 89 °F 95 °F (2008)
Min Temperature 77 °F 75 °F 75 °F (1998)
Cooling Degree Days 16    
Growing Degree Days 32 (Base 50)    
Moisture  
Dew Point 76 °F    
Average Humidity 80    
Maximum Humidity 94    
Minimum Humidity 70    
Precipitation  
Precipitation 0.04 in 0.26 in - ()
Sea Level Pressure  
Sea Level Pressure 30.06 in    
Wind  
Wind Speed 5 mph ()    
Max Wind Speed 13 mph    
Max Gust Speed -    
Visibility 6.7 miles    
Events Rain , Thunderstorm    
Averages and records for this station are not official NWS values.
T = Trace of Precipitation, MM = Missing Value Source: Averaged Metar Reports

Daily Weather History Graph

Daily Weather History Graph

Search for Another Location

Airport:

Trip Planner

Search our weather history database for the weather conditions in past years. The results will help you decide how hot, cold, wet, or windy it might be!

Date:

Astronomy

Aug. 12, 2013 Rise Set
Actual Time 6:42 AM EDT 7:46 PM EDT
Civil Twilight 6:18 AM EDT 8:10 PM EDT
Nautical Twilight 5:50 AM EDT 8:39 PM EDT
Astronomical Twilight 5:20 AM EDT 9:08 PM EDT
Moon 11:48 AM EDT (8/12) 11:23 PM EDT (8/12)
Length of Visible Light 13h 52m
Length of Day
13h 04m
Waxing Crescent, 31% of the Moon is Illuminated
Aug 12
Waxing Crescent
Aug 14
First Quarter
Aug 20
Full
Aug 28
Last Quarter
Sep 5
New

Hourly Weather History & Observations

Time (EDT) Temp. Heat Index Dew Point Humidity Pressure Visibility Wind Dir Wind Speed Gust Speed Precip Events Conditions
12:00 AM 82.4 °F 88.2 °F 73.4 °F 74% 30.09 in 6.2 mi ENE 5.8 mph - N/A   Scattered Clouds
1:00 AM 82.4 °F 88.2 °F 73.4 °F 74% 30.07 in 6.2 mi ENE 5.8 mph - N/A   Scattered Clouds
2:00 AM 80 °F - 76 °F 83% 30.07 in 9 mi NE 3.5 mph - - Rain Light Rain Showers
2:00 AM 80.6 °F 86.2 °F 75.2 °F 84% 30.06 in 6.2 mi NE 3.5 mph - N/A   Scattered Clouds
3:00 AM 80.6 °F 86.2 °F 75.2 °F 84% 30.05 in 6.2 mi ENE 3.5 mph - N/A   Scattered Clouds
4:00 AM 80.6 °F 86.2 °F 75.2 °F 84% 30.04 in 6.2 mi East 4.6 mph - N/A   Scattered Clouds
5:00 AM 81 °F - 76 °F 79% 30.05 in 9 mi East 3.5 mph - -   Partly Cloudy
5:00 AM 80.6 °F 86.2 °F 75.2 °F 84% 30.05 in 6.2 mi East 3.5 mph - N/A   Scattered Clouds
6:00 AM 80.6 °F 86.2 °F 75.2 °F 84% 30.06 in 6.2 mi ENE 4.6 mph - N/A   Scattered Clouds
7:00 AM 80.6 °F 86.2 °F 75.2 °F 84% 30.07 in 6.2 mi ENE 3.5 mph - N/A Rain Rain Showers
8:00 AM 79 °F - 76 °F 90% 30.06 in 9 mi ENE 3.5 mph - - Rain Light Rain Showers
8:00 AM 78.8 °F - 77.0 °F 94% 30.06 in 6.2 mi ENE 3.5 mph - N/A   Mostly Cloudy
9:00 AM 80.6 °F 86.2 °F 75.2 °F 84% 30.06 in 6.2 mi NE 5.8 mph - N/A Rain Light Rain Showers
10:00 AM 82.4 °F 89.5 °F 75.2 °F 79% 30.07 in 6.2 mi ENE 4.6 mph - N/A   Mostly Cloudy
11:00 AM 86 °F - 80 °F 79% 30.07 in 9 mi East 11.5 mph - -   Mostly Cloudy
11:00 AM 86.0 °F 101.9 °F 80.6 °F 84% 30.06 in 6.2 mi East 11.5 mph - N/A   Mostly Cloudy
12:00 PM 84.2 °F 92.3 °F 75.2 °F 74% 30.06 in 6.2 mi NE 10.4 mph - N/A   Mostly Cloudy
1:00 PM 84.2 °F 92.3 °F 75.2 °F 74% 30.06 in 6.2 mi East 8.1 mph - N/A   Mostly Cloudy
2:00 PM 84 °F - 76 °F 72% 30.06 in 8 mi North 3.5 mph - -   Mostly Cloudy
2:00 PM 84.2 °F 94.1 °F 77.0 °F 79% 30.06 in 6.2 mi North 3.5 mph - N/A   Mostly Cloudy
2:16 PM 84.2 °F 92.3 °F 75.2 °F 74% 30.05 in 6.2 mi SW 5.8 mph - N/A Rain , Thunderstorm Light Thunderstorms and Rain
2:33 PM 84.2 °F 92.3 °F 75.2 °F 74% 30.05 in 6.2 mi SW 2.3 mph - N/A   Scattered Clouds
3:00 PM 84.2 °F 90.9 °F 73.4 °F 70% 30.05 in 6.2 mi East 2.3 mph - N/A   Scattered Clouds
4:00 PM 86.0 °F 96.9 °F 77.0 °F 74% 30.03 in - NE 12.7 mph - N/A   Scattered Clouds
6:00 PM 80.6 °F 86.2 °F 75.2 °F 84% 30.03 in 6.2 mi North 6.9 mph - N/A Rain Rain Showers
6:15 PM 78.8 °F - 73.4 °F 83% 30.03 in 6.2 mi NW 4.6 mph - N/A Thunderstorm Light Thunderstorm
7:00 PM 78.8 °F - 73.4 °F 83% 30.03 in 6.2 mi Calm Calm - N/A   Scattered Clouds
11:00 PM 80.6 °F 87.1 °F 77.0 °F 89% 30.06 in 6.2 mi East 3.5 mph - N/A   Scattered Clouds